Location: B�rgermoos
(47.6500°N, 9.0667°E)
Time: 16:25:59
(UTC+00:00)

Vanguard 1 - Pass Details

Date: 03 August 2021
Orbit: 652 x 3831 km, 34.3° (Epoch: 17 September)

Event Time Altitude Azimuth Distance (km) Brightness Sun altitude
Rises 11:33:04 0° 245° (WSW) 3,184 12.9 59.7°
Reaches altitude 10° 11:35:29 10° 231° (SW) 2,443 12.6 59.7°
Maximum altitude 11:40:09 26° 175° (S) 1,957 12.7 59.6°
Drops below altitude 10° 11:47:04 10° 123° (ESE) 3,718 13.3 59.5°
Sets 11:51:45 0° 113° (ESE) 5,274 13.9 59.4°
